Terminal Aerodrome Forecast
Issued by NWS Houston/Galveston TX

Home | Current Version | Previous Version | Text Only | Print | Product List | Glossary On
Versions: 1 2 3 4 5 6 7 8 9 10 11 12 13 14 15 16 17 18 19 20 21 22 23 24 25 26 27 28 29 30 31 32 33 34 35 36 37 38 39 40 41 42 43 44 45 46 47 48 49
000
FTUS44 KHGX 301120
TAFHOU
TAF
KHOU 301120Z 3012/3112 19003KT P6SM SCT015 SCT025
      TEMPO 3012/3015 BKN015 BKN025
     FM301600 19007KT P6SM SCT025
     FM301800 18009KT P6SM SCT035
     FM310500 18003KT P6SM SCT015 BKN025
     FM310900 18002KT 6SM BR SCT007 OVC015=

USA.gov is the U.S. government's official web portal to all federal, state and local government web resources and services.